�������l�o���
Date,Time,MP-1(��Sv/h),MP-2(��Sv/h),MP-3(��Sv/h),MP-4(��Sv/h),MP-5(��Sv/h),MP-6(��Sv/h),MP-7(��Sv/h),����,����(m/s),���J
2019/10/05,00:00,0.191,0.167,0.287,0.273,0.265,0.147,0.090,��,4.0,��
2019/10/05,00:10,0.190,0.166,0.285,0.271,0.268,0.147,0.089,��,3.6,��
2019/10/05,00:20,0.192,0.166,0.288,0.270,0.265,0.146,0.090,���쐼,3.0,��
2019/10/05,00:30,0.190,0.167,0.286,0.273,0.266,0.146,0.090,��,2.0,��
2019/10/05,00:40,0.193,0.167,0.287,0.268,0.269,0.146,0.090,���쐼,2.3,��
2019/10/05,00:50,0.192,0.167,0.287,0.271,0.266,0.146,0.089,��쐼,3.7,��
2019/10/05,01:00,0.190,0.168,0.284,0.272,0.266,0.147,0.090,��쐼,5.1,��
2019/10/05,01:10,0.193,0.167,0.288,0.269,0.267,0.146,0.090,�쐼,6.2,��
2019/10/05,01:20,0.191,0.167,0.287,0.272,0.264,0.147,0.089,�쐼,4.7,��
2019/10/05,01:30,0.191,0.167,0.287,0.271,0.268,0.147,0.090,��,6.9,��
2019/10/05,01:40,0.193,0.167,0.288,0.271,0.266,0.146,0.090,��,5.0,��
2019/10/05,01:50,0.190,0.167,0.285,0.271,0.267,0.147,0.089,���쐼,5.5,��
2019/10/05,02:00,0.193,0.167,0.286,0.270,0.267,0.146,0.090,���k��,5.2,��
2019/10/05,02:10,0.192,0.167,0.286,0.272,0.264,0.147,0.090,��,5.0,��
2019/10/05,02:20,0.191,0.167,0.288,0.270,0.267,0.147,0.090,�쐼,4.3,��
2019/10/05,02:30,0.192,0.168,0.289,0.269,0.267,0.146,0.091,�쐼,5.1,��
2019/10/05,02:40,0.191,0.166,0.286,0.271,0.265,0.147,0.089,��,5.8,��
2019/10/05,02:50,0.193,0.168,0.288,0.268,0.268,0.147,0.089,���k��,6.4,��
2019/10/05,03:00,0.192,0.166,0.287,0.272,0.266,0.146,0.090,���k��,4.3,��
2019/10/05,03:10,0.191,0.167,0.287,0.270,0.268,0.147,0.089,��,3.2,��
2019/10/05,03:20,0.193,0.167,0.287,0.269,0.266,0.146,0.089,�k��,1.5,��
2019/10/05,03:30,0.192,0.168,0.287,0.271,0.265,0.147,0.090,�k�k��,0.6,��
2019/10/05,03:40,0.192,0.168,0.288,0.270,0.268,0.146,0.090,�k��,2.6,��
2019/10/05,03:50,0.192,0.167,0.287,0.271,0.264,0.148,0.090,���k��,4.7,��
2019/10/05,04:00,0.191,0.168,0.288,0.271,0.268,0.147,0.090,���k��,6.7,��
2019/10/05,04:10,0.193,0.165,0.288,0.270,0.266,0.146,0.089,�k��,9.5,��
2019/10/05,04:20,0.192,0.167,0.287,0.272,0.266,0.147,0.090,���k��,10.4,��
2019/10/05,04:30,0.189,0.166,0.288,0.270,0.268,0.146,0.090,�k��,11.4,��
2019/10/05,04:40,0.193,0.168,0.287,0.273,0.265,0.148,0.089,���k��,13.7,��
2019/10/05,04:50,0.191,0.167,0.286,0.271,0.267,0.147,0.090,��,11.4,��
2019/10/05,05:00,0.191,0.166,0.287,0.271,0.266,0.147,0.089,��,10.4,��
2019/10/05,05:10,0.193,0.168,0.285,0.271,0.264,0.147,0.089,�k��,4.4,��
2019/10/05,05:20,0.191,0.167,0.290,0.269,0.268,0.146,0.090,���k��,3.8,��
2019/10/05,05:30,0.191,0.166,0.287,0.271,0.265,0.147,0.089,���k��,3.6,��
2019/10/05,05:40,0.193,0.166,0.286,0.270,0.266,0.146,0.090,�k��,5.4,��
2019/10/05,05:50,0.191,0.166,0.287,0.269,0.267,0.146,0.090,�k�k��,5.1,��
2019/10/05,06:00,0.192,0.168,0.286,0.272,0.264,0.148,0.090,�k��,4.3,��
2019/10/05,06:10,0.192,0.167,0.287,0.269,0.267,0.146,0.090,�k��,6.8,��
2019/10/05,06:20,0.190,0.167,0.288,0.271,0.266,0.146,0.089,�k��,6.8,��
2019/10/05,06:30,0.192,0.168,0.285,0.271,0.264,0.147,0.089,���k��,8.5,��
2019/10/05,06:40,0.192,0.167,0.289,0.269,0.268,0.146,0.090,�k��,6.8,��
2019/10/05,06:50,0.192,0.167,0.288,0.271,0.265,0.147,0.089,�k��,3.9,��
2019/10/05,07:00,0.193,0.167,0.286,0.271,0.266,0.146,0.088,�k��,7.0,��
2019/10/05,07:10,0.191,0.167,0.289,0.269,0.267,0.148,0.088,���k��,9.2,��
2019/10/05,07:20,0.192,0.168,0.286,0.271,0.265,0.147,0.089,���k��,9.6,��
2019/10/05,07:30,0.194,0.165,0.287,0.271,0.266,0.146,0.088,���k��,13.1,��
2019/10/05,07:40,0.192,0.167,0.289,0.268,0.268,0.147,0.090,���k��,9.6,��
2019/10/05,07:50,0.190,0.166,0.285,0.267,0.266,0.146,0.090,���k��,7.2,��
2019/10/05,08:00,0.193,0.166,0.289,0.270,0.268,0.147,0.090,��,4.0,��
2019/10/05,08:10,0.193,0.168,0.287,0.272,0.268,0.147,0.089,���쐼,3.2,��
2019/10/05,08:20,0.191,0.167,0.286,0.270,0.265,0.146,0.089,���쐼,1.6,��
2019/10/05,08:30,0.193,0.166,0.289,0.270,0.266,0.147,0.090,�k,1.0,��
2019/10/05,08:40,0.192,0.166,0.287,0.268,0.266,0.147,0.090,�k��,1.7,��
2019/10/05,08:50,0.191,0.167,0.287,0.267,0.266,0.146,0.089,���k��,6.2,��
2019/10/05,09:00,0.191,0.167,0.289,0.268,0.265,0.146,0.090,���k��,3.4,��
2019/10/05,09:10,0.189,0.168,0.286,0.268,0.263,0.147,0.089,�k��,3.3,��
2019/10/05,09:20,0.189,0.167,0.286,0.269,0.264,0.147,0.089,�k��,6.4,��
2019/10/05,09:30,0.190,0.166,0.289,0.270,0.264,0.146,0.090,�k��,6.1,��
2019/10/05,09:40,0.191,0.166,0.288,0.269,0.266,0.147,0.090,���k��,4.8,��
2019/10/05,09:50,0.191,0.166,0.286,0.271,0.265,0.147,0.090,���k��,6.1,��
2019/10/05,10:00,0.190,0.165,0.290,0.270,0.265,0.146,0.089,���k��,4.5,��
2019/10/05,10:10,0.189,0.167,0.288,0.271,0.266,0.146,0.090,��,4.9,��
2019/10/05,10:20,0.192,0.167,0.286,0.269,0.266,0.147,0.090,���k��,6.6,��
2019/10/05,10:30,0.192,0.167,0.284,0.272,0.266,0.146,0.090,���k��,7.5,��
2019/10/05,10:40,0.192,0.166,0.289,0.272,0.266,0.147,0.089,���k��,7.5,��
2019/10/05,10:50,0.193,0.167,0.289,0.272,0.267,0.147,0.090,���k��,8.5,��
2019/10/05,11:00,0.192,0.167,0.287,0.272,0.267,0.147,0.091,���k��,7.8,��
2019/10/05,11:10,0.192,0.167,0.286,0.272,0.266,0.147,0.089,���k��,5.3,��
2019/10/05,11:20,0.192,0.167,0.285,0.271,0.266,0.147,0.090,���k��,5.4,��
2019/10/05,11:30,0.192,0.167,0.285,0.272,0.268,0.147,0.090,���k��,5.7,��
2019/10/05,11:40,0.192,0.168,0.285,0.272,0.267,0.147,0.090,�k��,3.8,��
2019/10/05,11:50,0.191,0.168,0.286,0.272,0.268,0.147,0.089,���k��,6.5,��
2019/10/05,12:00,0.193,0.167,0.285,0.273,0.267,0.148,0.091,�k��,7.5,��
2019/10/05,12:10,0.193,0.166,0.286,0.271,0.268,0.147,0.091,���k��,5.3,��
2019/10/05,12:20,0.192,0.168,0.286,0.272,0.268,0.147,0.089,���k��,4.3,��
2019/10/05,12:30,0.193,0.168,0.288,0.271,0.266,0.147,0.090,��쐼,1.6,��
2019/10/05,12:40,0.192,0.168,0.287,0.273,0.268,0.147,0.089,��쓌,4.5,��
2019/10/05,12:50,0.192,0.168,0.287,0.272,0.268,0.148,0.090,��쓌,5.1,��
2019/10/05,13:00,0.194,0.167,0.288,0.271,0.266,0.148,0.091,��쓌,4.4,��
2019/10/05,13:10,0.193,0.166,0.288,0.269,0.267,0.147,0.089,��쓌,5.7,��
2019/10/05,13:20,0.193,0.167,0.288,0.271,0.267,0.147,0.090,��쓌,5.9,��
2019/10/05,13:30,0.192,0.167,0.288,0.270,0.268,0.146,0.090,��쓌,4.2,��
2019/10/05,13:40,0.193,0.168,0.288,0.272,0.268,0.147,0.089,��쓌,5.4,��
2019/10/05,13:50,0.192,0.166,0.286,0.271,0.267,0.147,0.090,��쓌,4.4,��
2019/10/05,14:00,0.193,0.166,0.288,0.271,0.267,0.147,0.089,�쓌,5.3,��
2019/10/05,14:10,0.192,0.166,0.287,0.269,0.268,0.147,0.090,�쓌,3.2,��
2019/10/05,14:20,0.192,0.168,0.287,0.271,0.266,0.147,0.089,�쓌,3.8,��
2019/10/05,14:30,0.192,0.166,0.287,0.270,0.266,0.148,0.089,���쓌,2.6,��
2019/10/05,14:40,0.192,0.167,0.286,0.274,0.265,0.147,0.090,�쓌,2.4,��
2019/10/05,14:50,0.190,0.167,0.287,0.274,0.265,0.147,0.091,�쓌,2.9,��
2019/10/05,15:00,0.191,0.166,0.292,0.272,0.266,0.147,0.089,�쓌,3.7,��
2019/10/05,15:10,0.193,0.168,0.289,0.271,0.270,0.146,0.090,�쓌,2.8,��
2019/10/05,15:20,0.191,0.169,0.286,0.275,0.270,0.146,0.090,�쓌,3.0,��
2019/10/05,15:30,0.191,0.167,0.288,0.274,0.266,0.147,0.090,��쓌,2.3,��
2019/10/05,15:40,0.191,0.167,0.291,0.271,0.266,0.148,0.089,��쓌,3.5,��
2019/10/05,15:50,0.192,0.169,0.288,0.273,0.268,0.147,0.089,��쓌,3.7,��
2019/10/05,16:00,0.193,0.168,0.287,0.275,0.270,0.146,0.090,��쓌,3.7,��
2019/10/05,16:10,0.192,0.167,0.290,0.272,0.267,0.148,0.089,��,3.2,��
2019/10/05,16:20,0.192,0.169,0.290,0.271,0.264,0.148,0.090,��,2.8,��
2019/10/05,16:30,0.194,0.167,0.287,0.275,0.269,0.147,0.091,��,2.1,��
2019/10/05,16:40,0.193,0.167,0.291,0.271,0.270,0.148,0.089,��,3.2,��
2019/10/05,16:50,0.193,0.169,0.290,0.272,0.265,0.148,0.090,��,4.0,��
2019/10/05,17:00,0.195,0.167,0.288,0.276,0.268,0.147,0.090,��,4.6,��
2019/10/05,17:10,0.193,0.169,0.291,0.272,0.271,0.147,0.089,��쐼,3.7,��
2019/10/05,17:20,0.192,0.167,0.288,0.274,0.267,0.148,0.090,��쐼,5.3,��
2019/10/05,17:30,0.194,0.169,0.288,0.274,0.271,0.147,0.090,��쓌,2.8,��
2019/10/05,17:40,0.191,0.168,0.289,0.271,0.268,0.148,0.089,��,3.1,��
2019/10/05,17:50,0.193,0.167,0.287,0.274,0.265,0.148,0.090,��,4.6,��
2019/10/05,18:00,0.194,0.168,0.290,0.273,0.270,0.147,0.091,��,3.7,��
2019/10/05,18:10,0.192,0.167,0.290,0.272,0.268,0.149,0.090,��,3.9,��
2019/10/05,18:20,0.194,0.169,0.287,0.274,0.268,0.148,0.089,��,4.8,��
2019/10/05,18:30,0.193,0.168,0.290,0.272,0.271,0.148,0.089,��,4.5,��
2019/10/05,18:40,0.192,0.169,0.288,0.274,0.266,0.148,0.090,��,5.3,��
2019/10/05,18:50,0.195,0.168,0.289,0.273,0.268,0.147,0.090,��,5.8,��
2019/10/05,19:00,0.192,0.168,0.290,0.272,0.269,0.148,0.090,��,4.4,��
2019/10/05,19:10,0.193,0.169,0.288,0.275,0.267,0.149,0.090,��,4.0,��
2019/10/05,19:20,0.194,0.167,0.291,0.273,0.269,0.147,0.091,��쐼,2.8,��
2019/10/05,19:30,0.192,0.169,0.291,0.272,0.270,0.149,0.092,��,2.0,��
2019/10/05,19:40,0.194,0.168,0.289,0.275,0.267,0.148,0.090,��쓌,3.2,��
2019/10/05,19:50,0.193,0.169,0.290,0.272,0.270,0.148,0.091,��,2.8,��
2019/10/05,20:00,0.192,0.169,0.289,0.273,0.268,0.149,0.091,��,2.7,��
2019/10/05,20:10,0.194,0.168,0.290,0.274,0.266,0.148,0.091,��,2.7,��
2019/10/05,20:20,0.193,0.168,0.289,0.272,0.271,0.148,0.090,��,2.0,��
2019/10/05,20:30,0.193,0.167,0.288,0.276,0.267,0.148,0.091,��,2.4,��
2019/10/05,20:40,0.195,0.169,0.291,0.273,0.270,0.148,0.091,��,2.3,��
2019/10/05,20:50,0.193,0.167,0.290,0.274,0.268,0.148,0.091,��,2.7,��
2019/10/05,21:00,0.195,0.168,0.290,0.274,0.267,0.148,0.091,��,3.6,��
2019/10/05,21:10,0.194,0.169,0.289,0.272,0.270,0.147,0.090,��,4.1,��
2019/10/05,21:20,0.193,0.167,0.289,0.275,0.267,0.148,0.091,��,4.5,��
2019/10/05,21:30,0.194,0.169,0.291,0.273,0.269,0.147,0.091,��,4.3,��
2019/10/05,21:40,0.192,0.168,0.287,0.275,0.269,0.148,0.091,��,4.5,��
2019/10/05,21:50,0.194,0.169,0.291,0.273,0.266,0.147,0.091,��,3.9,��
2019/10/05,22:00,0.192,0.168,0.290,0.272,0.270,0.148,0.090,��쐼,4.4,��
2019/10/05,22:10,0.192,0.168,0.290,0.273,0.268,0.148,0.091,��,4.0,��
2019/10/05,22:20,0.195,0.167,0.291,0.272,0.269,0.148,0.091,��쓌,3.7,��
2019/10/05,22:30,0.191,0.169,0.287,0.274,0.270,0.148,0.091,�쓌,2.7,��
2019/10/05,22:40,0.194,0.167,0.291,0.273,0.267,0.149,0.090,�쓌,3.3,��
2019/10/05,22:50,0.194,0.167,0.288,0.272,0.269,0.147,0.090,���쓌,2.0,��
2019/10/05,23:00,0.192,0.168,0.289,0.275,0.270,0.149,0.090,�쓌,2.6,��
2019/10/05,23:10,0.194,0.168,0.290,0.271,0.266,0.148,0.090,��쓌,1.7,��
2019/10/05,23:20,0.193,0.168,0.287,0.274,0.269,0.148,0.089,�쓌,1.1,��
2019/10/05,23:30,0.192,0.167,0.291,0.274,0.267,0.149,0.090,��,1.1,��
2019/10/05,23:40,0.194,0.168,0.288,0.272,0.266,0.147,0.089,-,CALM,��
2019/10/05,23:50,0.192,0.168,0.290,0.274,0.269,0.147,0.090,-,CALM,��
